GW1525 Weather Reports


time (UTC)temp
F
wind
direction
speed
knots
gust
knots
rain 1hr
in
rain 24hr
in
rain mn
in
humidity
%
barometer
mb
20260507093037 43 198 0.9 3.5 0.00 0.23 0.01 84 1015.4
20260507091527 43 307 0.0 3.5 0.00 0.23 0.01 84 1015.5
20260507084534 43 101 0.0 3.5 0.00 0.24 0.01 85 1015.4
20260507083025 44 22 0.0 1.7 0.00 0.24 0.01 85 1015.3
20260507080032 44 70 0.0 3.5 0.00 0.24 0.01 82 1015.2
20260507074540 44 40 0.9 4.3 0.00 0.28 0.01 83 1015.2
20260507071532 44 143 3.5 6.1 0.00 0.28 0.01 83 1015.0
20260507070032 42 112 0.0 3.5 0.00 0.28 0.01 83 1014.8
20260507063035 41 40 1.7 5.2 0.00 0.40 0.01 82 1014.7
20260507060032 39 144 1.7 4.3 0.00 0.40 0.01 88 1014.4
20260507054529 38 93 0.9 4.3 0.00 0.46 0.01 93 1014.2
20260507053032 37 195 0.9 6.1 0.00 0.46 0.01 93 1014.1
20260507050035 33 303 0.0 1.7 0.00 0.46 0.01 93 1013.8
20260507043031 28 350 0.0 0.0 0.00 0.46 0.01 92 1013.4
20260507040030 26 350 0.0 0.0 0.00 0.46 0.01 90 1013.1
20260507034531 26 350 0.0 0.0 0.00 0.46 0.01 89 1013.0
20260507033029 26 350 0.0 0.0 0.00 0.46 0.01 89 1012.9
20260507030030 28 350 0.0 0.0 0.00 0.46 0.01 88 1012.8
20260507024528 29 350 0.0 0.0 0.00 0.46 0.01 88 1012.8
20260507023025 29 350 0.0 0.0 0.00 0.46 0.01 88 1012.8
20260507020045 32 350 0.0 0.0 0.00 0.46 0.01 89 1012.8
20260507013034 32 349 0.9 1.7 0.00 0.46 0.01 88 1012.7
20260507010026 34 349 0.0 3.5 0.00 0.46 0.01 86 1012.6
20260507003029 36 79 0.0 3.5 0.00 0.46 0.01 84 1012.6
20260507000036 34 69 0.9 3.5 0.00 0.46 0.01 89 1012.8
20260506233033 36 29 0.0 1.7 0.00 0.46 0.01 85 1012.6
20260506231526 38 26 0.0 4.3 0.01 0.46 0.01 83 1012.8
20260506224533 39 346 1.7 5.2 0.01 0.46 0.01 86 1012.8
20260506223031 39 283 2.6 7.0 0.01 0.46 0.01 89 1013.0
20260506220046 39 309 2.6 7.0 0.00 0.45 0.00 88 1012.8
20260506214527 39 322 1.7 6.1 0.00 0.45 0.45 87 1012.8
20260506211531 40 88 0.0 7.0 0.01 0.45 0.45 90 1013.2
20260506204526 39 16 0.0 6.1 0.01 0.45 0.45 87 1013.0
20260506201533 40 350 1.7 10.4 0.01 0.44 0.44 88 1012.9
20260506194527 40 283 2.6 6.1 0.02 0.45 0.44 90 1012.6
20260506193017 40 269 2.6 6.1 0.04 0.45 0.44 89 1012.5
20260506190028 40 250 5.2 10.4 0.05 0.44 0.43 88 1012.0
20260506183022 41 59 0.9 5.2 0.02 0.41 0.40 87 1011.8
20260506180028 42 18 1.7 6.1 0.00 0.39 0.39 89 1011.9
20260506174521 42 339 3.5 7.0 0.00 0.39 0.39 89 1011.9
20260506171528 42 313 0.9 7.0 0.00 0.39 0.39 84 1011.5
20260506170027 42 130 2.6 8.7 0.00 0.39 0.39 84 1011.3
20260506163035 42 95 0.9 5.2 0.00 0.42 0.39 88 1011.2
20260506160025 42 31 0.9 7.8 0.00 0.42 0.39 91 1011.4
20260506153040 42 46 0.9 4.3 0.00 0.43 0.39 91 1011.2
20260506151533 42 318 0.9 8.7 0.00 0.43 0.39 92 1011.3
20260506144530 42 281 0.9 8.7 0.02 0.43 0.39 94 1011.4
20260506141529 40 66 1.7 5.2 0.06 0.43 0.39 94 1011.4
20260506140040 39 163 1.7 8.7 0.05 0.42 0.38 93 1011.8
20260506134524 39 87 2.6 11.3 0.03 0.43 0.36 93 1011.9
20260506131529 41 164 1.7 4.3 0.02 0.39 0.33 94 1012.0
20260506124526 42 257 1.7 10.4 0.04 0.42 0.32 94 1011.9
20260506121529 42 29 2.6 11.3 0.04 0.40 0.31 94 1011.7
20260506120026 42 360 1.7 12.2 0.03 0.39 0.31 94 1011.7
20260506113032 42 247 6.1 11.3 0.03 0.41 0.28 94 1011.8
20260506110034 41 90 3.5 8.7 0.03 0.40 0.28 94 1012.2
20260506104554 41 136 3.5 9.6 0.02 0.57 0.27 94 1012.5
20260506103028 41 287 5.2 8.7 0.02 0.56 0.25 94 1012.7
20260506101525 40 248 3.5 10.4 0.02 0.55 0.24 94 1012.3